Date,TemperatureHighF,TemperatureAvgF,TemperatureLowF,DewpointHighF,DewpointAvgF,DewpointLowF,HumidityHigh,HumidityAvg,HumidityLow,PressureMaxIn,PressureMinIn,WindSpeedMaxMPH,WindSpeedAvgMPH,GustSpeedMaxMPH,PrecipitationSumIn
2013-3-1,58.1,53.6,50.7,51.6,48.8,46.6,98,84,67,30.27,30.18,5,2,17,0.04
2013-3-2,59.0,48.5,37.0,49.3,43.4,36.5,98,84,55,30.18,29.94,4,1,13,0.44
2013-3-3,54.5,40.2,31.8,48.7,32.9,24.6,98,79,38,30.18,30.09,3,0,9,0.04
2013-3-4,56.5,41.5,27.7,35.4,24.9,17.6,98,59,27,30.18,29.79,4,1,11,0.00
2013-3-5,54.5,46.0,41.0,38.3,27.8,17.4,85,51,33,29.82,29.62,2,0,8,0.00
2013-3-6,43.7,40.6,37.6,43.0,39.6,35.8,98,96,85,29.79,29.47,3,0,8,0.44
2013-3-7,51.1,42.5,35.2,48.6,40.1,34.7,98,92,68,29.97,29.79,1,0,5,0.28
2013-3-8,55.9,40.1,31.1,45.1,34.5,30.6,98,83,47,30.15,29.94,2,0,8,0.00
2013-3-9,59.4,43.1,33.6,47.1,33.6,26.6,98,74,35,30.41,30.15,2,0,6,0.00
2013-3-10,48.9,41.6,34.3,41.9,38.0,31.8,98,88,70,30.59,30.33,1,0,5,0.00
2013-3-11,54.9,46.2,39.7,46.9,41.6,38.1,98,86,55,30.59,30.06,2,0,5,0.00
2013-3-12,55.0,52.0,46.8,50.7,46.7,42.1,98,83,62,30.06,29.94,6,4,16,0.00
2013-3-13,51.4,50.9,50.2,48.6,47.7,47.1,92,89,85,30.09,30.00,6,5,15,0.00
2013-3-14,48.4,48.1,48.0,47.8,47.6,47.5,98,98,98,30.03,30.00,0,0,4,0.00
2013-3-16,42.1,6.0,41.4,32.4,-81.1,-99.9,79,75,67,29.88,29.82,3,2,9,0.00
2013-3-17,53.8,28.7,37.8,36.9,-16.0,-99.9,95,69,37,30.09,29.88,5,2,13,0.00
2013-3-18,57.4,43.1,35.1,42.1,32.3,27.7,92,67,36,30.15,30.03,6,3,18,0.00
2013-3-19,59.9,43.0,33.6,41.4,32.5,22.8,98,73,26,30.12,29.50,4,1,16,0.20
2013-3-20,54.1,45.8,38.5,50.5,39.5,28.2,98,80,56,29.91,29.29,7,4,22,0.56
2013-3-21,38.8,38.6,38.1,31.8,31.4,29.8,77,75,71,30.00,29.91,3,2,10,0.00
2013-3-24,55.9,47.0,40.8,26.2,22.5,19.4,52,39,27,30.09,30.00,2,0,6,0.00
2013-3-25,66.0,49.5,31.6,37.6,25.5,19.4,83,42,24,30.03,29.82,2,1,8,0.00
2013-3-26,66.4,51.7,43.3,36.7,32.9,28.0,73,51,26,29.91,29.85,2,0,8,0.00
2013-3-27,60.8,49.7,42.6,45.9,39.3,35.1,95,69,41,29.88,29.82,1,0,5,0.00
2013-3-28,66.0,51.5,41.4,52.7,42.8,37.9,98,76,40,30.06,29.88,2,0,8,0.04
2013-3-29,68.7,52.7,41.4,50.0,41.0,37.6,98,69,34,30.15,30.06,2,0,8,0.00
2013-3-30,70.2,52.6,38.3,44.8,39.4,36.1,98,66,32,30.15,29.97,2,0,9,0.00
2013-3-31,74.5,55.2,39.2,49.3,40.2,36.9,98,63,26,29.97,29.79,3,0,9,0.00